Reflectivity
-5 2 12 13 4 10 -7 -20 7 1 -3 -3 -12 4 -20 -8 8 17 31 29 24 -5 1 -7 -14 14 -20 -18 -20 -14 -10 -6 17 18 24 9 -15 -20 -20 -20 -20 -20 -20 -20 -20 -20 -20 -20 -20 -20 -20 -20 -20 -20
-7 -6 8 7 12 8 6 12 5 11 -2 -7 -19 5 -20 -15 12 11 5 21 11 21 -18 -20 -2 -20 -20 -20 -9 1 -20 8 14 13 14 -14 -10 -20 -20 -20 -20 -20 -20 -20 -20 -20 -20 -20 -20 -20 -20 -20 -20 -20
-4 9 2 7 7 4 -2 -4 -11 -3 6 -1 -9 1 -20 -16 3 19 18 6 -2 -0 -20 -20 -20 -20 -20 -20 -20 -16 -10 14 17 25 34 -17 -8 -20 -20 -20 -20 -20 -20 -20 -20 -20 -20 -20 -20 -20 -20 -20 -20 -20
-2 8 -0 4 -0 -3 -20 -1 -4 5 10 3 5 -20 -20 -7 -20 12 12 10 13 -2 -17 -20 -20 -20 -20 -20 -20 -20 -8 -8 24 27 22 11 -20 -20 -20 -20 -20 -20 -20 -20 -20 -20 -20 -20 -20 -20 -20 -20 -20 -20
7 7 7 -3 -15 -20 -5 -2 -17 -20 -17 -20 -20 -20 -19 -5 -10 1 -13 15 -2 -7 -2 -15 -20 -20 -20 -20 -20 -20 -18 13 21 23 17 6 -20 -20 -20 -20 -20 -20 -20 -20 -20 -20 -20 -20 -20 -20 -20 -20 -20 -20
8 5 8 -5 -20 -20 -20 -20 -20 -20 -20 -17 -20 -20 -20 -20 -20 -20 -20 11 10 28 5 7 -18 -20 -20 -20 -6 -20 17 24 22 20 19 7 -20 -20 -20 -20 -20 -20 -20 -20 -20 -20 -20 -20 -20 -20 -20 -20 -20 -20
9 1 13 4 -0 -20 -20 -20 -20 -20 -20 -19 -20 -20 -20 -20 -20 1 8 20 15 5 12 -14 -20 -20 -20 -20 -12 -19 13 1 24 24 26 8 6 -9 -20 -20 -20 -20 -20 -20 -20 -20 -20 -20 -20 -20 -20 -20 -20 -20
5 9 13 6 5 -14 -20 -20 -16 -20 -20 -14 -20 -20 -20 -10 -18 -9 8 23 3 13 8 -2 -20 -13 -16 -13 -8 -20 0 -7 26 20 26 26 1 -17 -20 -17 -20 -20 -20 -20 -20 -20 -20 -20 -20 -20 -20 -20 -20 -20
3 -5 7 13 6 4 -4 1 -2 -20 -20 -20 -20 -6 4 4 -3 2 17 13 -14 17 -3 -18 -20 -20 -20 19 -17 -20 -8 9 23 10 2 11 13 0 -20 -20 -20 -20 -20 -20 -20 -20 -20 -20 -20 -20 -20 -20 -20 -20
9 -20 10 7 2 7 5 4 -20 -20 -20 -20 -19 -4 20 -11 -5 26 28 20 25 20 -6 -18 -20 -20 -20 -20 -20 -20 -20 -16 12 1 -12 -16 -20 -20 -20 -20 -20 -20 -20 -20 -20 -20 -20 -20 -20 -20 -20 -20 -20 -20
8 -20 0 -2 3 5 4 -20 -20 -7 -20 -20 -20 -0 -13 2 30 33 28 6 17 26 2 -8 -20 -20 -20 -20 -20 -20 -8 -20 -20 -20 -18 -20 -20 -20 -20 -20 -20 -20 -20 -20 -20 -20 -20 -20 -20 -20 -20 -20 -20 -20
0 -20 -20 -5 -2 0 -19 -20 -20 -18 6 -1 10 -6 7 25 36 30 27 17 0 -20 -20 -16 -20 -20 -20 -20 -20 -20 -20 -4 -20 -20 -20 -14 -20 -20 -20 -20 -20 -20 -20 -20 -20 -20 -20 -20 -20 -20 -20 -20 -20 -20
-17 -4 -20 -6 -18 -20 -20 -20 -20 -20 -20 -20 -10 -6 8 25 25 17 -6 1 -6 -20 -20 -3 -2 -20 -20 -20 -20 -20 -20 -20 -20 -20 -20 -20 -20 -20 -20 -20 -20 -20 -20 -20 -20 -20 -20 -20 -20 -20 -20 -20 -20 -20
-20 -20 -20 -20 -20 -20 -20 -20 -20 -18 0 -20 -20 -20 11 14 22 14 7 2 8 -20 -20 -12 -20 -20 -20 -20 -20 -20 -20 -20 -20 -20 -20 -20 -20 -20 -20 -20 -20 -20 -20 -20 -20 -20 -20 -20 -20 -20 -20 -20 -20 -20
-20 -20 -20 -20 -20 -20 -20 -20 -18 -20 -7 -20 -20 -20 5 23 13 -4 -3 23 -8 -20 -20 -20 -20 -20 -20 -20 -20 -20 -20 -20 -20 -20 -20 -20 -20 -20 -20 -20 -20 -20 -20 -20 -20 -20 -20 -20 -20 -20 -20 -20 -20 -20
-20 -20 -20 -20 -20 -20 -20 -20 -14 -20 -15 -9 -18 -20 -18 -20 -20 -20 -10 6 7 -20 -20 -17 -13 -20 -20 -20 -20 -20 -20 -20 -20 -20 -20 -20 -20 -20 -20 -20 -20 -20 -20 -20 -20 -20 -20 -20 -20 -20 -20 -20 -20 -20
-20 -20 -20 -20 -20 -20 -20 -20 -20 -20 -0 -12 -20 -17 2 -20 -20 -20 1 -18 24 19 9 -3 -20 -20 -20 -20 -20 -20 -20 -20 -20 -20 -20 -20 -20 -20 -20 -20 -20 -20 -20 -20 -20 -20 -20 -20 -20 -20 -20 -20 -20 -20
-20 -20 -20 -20 -20 -20 -20 -20 -20 -20 -5 -1 -20 -20 -20 -20 -19 -20 -5 -10 11 25 27 22 -20 -20 -20 -20 -20 -20 -20 -20 -20 -20 -20 -20 -20 -20 -20 -20 -20 -20 -20 -20 -20 -20 -20 -20 -20 -20 -20 -20 -20 -20
-20 -20 -20 -20 -20 -20 -20 -20 -20 -20 -20 -20 -20 -20 -20 -20 -20 -20 -19 -7 19 26 27 23 12 -20 -20 -20 -20 -20 -20 -20 -20 -20 -20 -20 -20 -20 -20 -20 -20 -20 -20 -20 -20 -20 -20 -20 -20 -20 -20 -20 -20 -20
-20 -20 -20 -20 -20 -20 -20 -20 -20 -20 -20 -20 -20 -20 -20 -20 -20 -20 -20 -20 13 27 26 20 1 -20 -20 -20 -20 -20 -20 -20 -20 -20 -20 -20 -20 -20 -20 -20 -20 -20 -20 -20 -20 -20 -20 -20 -20 -20 -20 -20 -20 -20
-20 -20 -20 -20 -20 -20 -20 -20 -20 -20 -20 -20 -20 -20 -20 -20 -20 -2 4 -20 1 19 14 19 10 1 -1 -20 -20 -20 -20 -20 -20 -20 -20 -20 -20 -20 -20 -20 -20 -20 -20 -20 -20 -20 -20 -20 -20 -20 -20 -20 -20 -20
-20 -20 -20 -20 -20 -20 -20 -20 -20 -20 -20 -20 -20 -20 -20 -20 -20 -20 -20 -20 -19 -3 9 4 17 18 10 -6 -20 -20 -20 -20 -20 -20 -20 -20 -20 -20 -20 -20 -20 -20 -20 -20 -20 -20 -20 -20 -20 -20 -20 -20 -20 -20
-20 -20 -20 -20 -20 -20 -20 -20 -20 -20 -20 -20 -20 -20 -20 -20 -20 -20 -20 -20 -19 -14 -0 12 12 17 20 21 14 10 -15 -20 -20 -20 -20 -20 -20 -20 -20 -20 -20 -20 -20 -20 -20 -20 -16 -20 -20 -20 -20 -20 -20 -20
-20 -20 -20 -20 -20 -20 -20 -20 -20 -20 -20 -20 -20 -20 -20 -20 -20 -20 -20 -20 -20 -20 7 13 10 10 11 14 22 24 8 -20 -20 -20 -20 -20 -20 -20 -20 -20 -20 -20 -19 -12 -20 -20 -20 -20 -20 -20 -20 -20 -20 -20
-20 -20 -20 -20 -20 -20 -20 -20 -20 -20 -20 -20 -20 -20 -20 -20 -20 -20 -20 -20 -20 -20 -13 10 17 15 15 12 13 16 18 4 -20 -20 -20 -20 -20 -20 -20 -20 -20 -14 2 -16 -8 6 -2 4 -6 -20 -20 -20 -20 -18
-20 -20 -20 -20 -20 -20 -20 -20 -20 -20 -20 -20 -20 -20 -20 -20 -20 -20 -20 -20 -20 -20 -20 -19 10 10 7 12 6 16 15 16 -5 -20 -20 -20 -20 -20 -20 -18 -15 -13 -4 -0 11 12 8 -8 -18 -20 -20 -14 2 -15
-20 -20 -20 -20 -20 -20 -20 -20 -20 -20 -20 -20 -20 -20 -20 -20 -20 -20 -20 -20 -20 -20 -20 -20 -20 3 3 1 9 7 14 11 -3 -20 -20 -20 -20 2 5 3 13 17 21 17 15 12 8 5 -15 -7 14 10 -20 -20
-20 -20 -20 -20 -20 -20 -20 -20 -20 -20 -20 -20 -20 -20 -20 -20 -20 -20 -20 -20 -20 -20 -20 -20 -20 -17 -7 4 4 5 5 12 -1 -17 -16 -17 -10 8 18 22 23 22 17 15 17 10 -1 7 11 13 3 -20 -20 -20
-20 -20 -20 -20 -20 -20 -20 -20 -20 -20 -20 -20 -20 -20 -20 -20 -20 -20 -20 -20 -20 -20 -20 -20 -20 -20 -19 -6 4 -7 1 9 3 -20 -20 -20 -15 12 21 20 18 19 18 7 4 18 16 10 11 2 -20 -20 -20 -20
-20 -20 -20 -20 -20 -20 -20 -20 -20 -20 -20 -20 -20 -20 -20 -20 -20 -20 -20 -20 -20 -20 -20 -20 -20 -20 -16 5 9 7 -1 12 12 -5 -15 -15 -18 -0 16 23 20 17 19 21 17 13 15 12 0 -20 -20 -20 -20 -20
-20 -20 -20 -20 -20 -20 -20 -20 -20 -20 -20 -20 -20 -20 -20 -20 -20 -20 -20 -20 -20 -20 -20 -20 -20 -2 0 5 9 14 15 19 19 13 16 18 16 17 21 21 21 18 18 20 21 14 0 -19 -20 -20 -20 -20 -20 -20
-20 -20 -20 -20 -20 -20 -20 -20 -20 -20 -20 -20 -20 -20 -20 -20 -20 -20 -20 -20 -20 -20 -10 -9 -0 11 14 15 16 20 23 22 19 19 19 16 16 17 17 18 20 17 6 -1 -2 -12 -20 -20 -20 -20 -20 -20 -20 -20
-20 -20 -20 -20 -20 -20 -20 -20 -20 -20 -20 -20 -20 -20 -20 -20 -20 -20 -20 -20 -20 -2 1 4 9 13 17 20 21 23 24 23 24 24 25 22 16 10 3 3 8 9 6 3 -0 -7 -19 -20 -20 -20 -20 -20 -20 -20
Wind_Speed
21 23 25 25 24 23 21 21 19 19 18 20 21 21 22 22 22 11 6 4 3 2 0 1 6 6 3 3 4 3 0 3 3 4 4 3 4 4 2 4 5 6 4 4 0 2 4 3 4 4 4 4 3 4
21 23 24 24 23 23 21 19 20 18 18 19 18 19 21 21 22 16 4 5 5 1 2 1 1 1 3 6 4 4 1 1 3 3 2 2 3 2 3 4 1 3 6 3 7 6 3 3 4 4 3 3 0 6
21 23 23 23 22 20 20 19 19 19 18 18 18 18 20 20 21 16 4 5 3 2 3 2 4 2 1 2 1 3 2 3 3 1 2 2 3 4 4 6 2 3 4 2 3 2 3 2 0 3 4 2 2 8
20 20 21 21 20 19 18 19 20 20 17 18 19 19 19 20 21 19 4 3 2 3 1 3 1 1 2 1 2 2 4 1 1 1 3 3 2 2 3 2 3 4 2 2 4 6 6 3 2 4 5 7 11 10
20 19 20 18 19 19 18 19 19 19 20 19 20 20 20 19 20 13 8 5 5 3 1 0 1 1 1 2 3 3 2 2 2 3 4 4 2 3 1 2 3 5 7 4 5 4 2 1 6 6 6 7 8 15
19 18 19 18 18 19 18 19 19 20 21 20 21 22 21 20 18 4 4 3 2 2 2 2 2 3 2 3 4 4 3 3 2 2 3 3 3 3 3 4 6 5 2 2 3 3 3 5 6 3 7 7 8 9
17 18 17 16 18 19 19 19 21 22 23 22 24 24 23 20 4 4 4 1 11 5 1 2 2 2 4 3 2 2 3 2 3 3 3 2 2 2 1 4 5 5 6 3 3 6 4 3 5 6 10 11 13 12
16 18 17 17 17 18 20 20 21 22 24 26 27 26 21 16 10 7 5 14 6 4 2 2 2 1 5 3 2 3 2 2 2 2 2 1 1 2 5 9 3 3 6 6 1 2 1 10 10 9 10 13 14 11
16 18 18 17 18 18 20 21 22 21 26 27 26 18 1 2 2 3 21 22 5 2 2 2 3 3 2 1 1 1 1 2 0 2 2 1 2 6 9 7 6 9 7 9 6 7 8 11 11 10 11 10 15 11
15 17 17 17 18 18 20 21 19 22 26 23 5 3 0 1 16 13 2 4 3 2 2 2 2 3 3 2 0 0 1 1 2 0 2 3 5 10 8 7 3 8 10 13 11 5 7 7 12 11 8 8 12 12
15 17 17 18 18 19 20 19 19 24 11 4 4 2 3 11 2 3 1 2 3 2 3 3 4 4 2 2 3 1 2 0 1 3 1 3 6 4 5 7 6 8 11 6 3 6 7 12 15 13 11 9 11 12
15 17 17 18 18 19 17 18 21 6 2 4 7 6 3 3 2 3 3 1 3 5 1 3 3 3 2 1 2 0 2 0 4 3 1 4 6 4 5 3 4 7 9 6 4 10 11 13 13 13 13 13 10 12
16 17 16 17 18 15 18 20 20 19 9 2 2 2 1 2 2 1 2 1 1 0 3 3 2 3 2 1 3 2 1 3 1 1 5 6 4 4 3 1 4 6 7 7 8 8 12 12 11 14 14 11 13 13
15 16 17 16 13 17 20 20 19 8 1 2 3 4 0 3 3 3 2 3 2 3 1 2 2 3 2 4 1 3 1 1 2 3 7 4 4 3 0 1 5 6 7 8 9 11 13 14 12 11 12 12 14 13
15 17 17 7 14 21 20 18 9 2 1 1 1 2 2 3 3 3 2 1 3 2 1 2 3 3 1 4 2 3 1 4 6 7 5 4 3 2 2 3 6 8 8 8 8 10 12 14 14 13 9 11 12 12
13 14 1 8 19 19 16 6 3 2 1 1 1 3 4 2 4 4 3 3 3 2 2 1 3 2 3 5 4 8 7 7 6 5 4 3 1 2 3 5 6 7 9 10 9 11 12 13 14 14 12 11 10 11
10 4 7 16 18 15 8 1 1 3 2 2 0 1 1 4 3 3 3 3 4 2 3 2 5 7 3 3 3 5 8 5 3 3 2 2 2 3 5 6 7 9 10 11 12 12 13 13 14 14 14 7 10 10
3 5 12 14 11 4 3 1 1 2 2 2 2 4 3 2 5 5 4 2 4 3 1 2 3 2 6 6 5 6 4 1 1 1 2 2 1 3 4 7 7 10 11 11 12 13 14 14 13 9 12 11 12 10
4 5 8 9 5 2 3 4 2 0 2 3 4 3 3 4 4 5 6 6 3 4 5 2 5 5 5 4 4 3 2 3 3 2 1 2 4 6 6 7 7 9 11 12 14 10 8 9 10 10 9 9 9 7
5 1 6 6 2 3 5 2 2 1 2 3 3 4 5 5 3 3 5 5 2 2 4 4 4 2 2 2 3 2 2 4 3 3 2 1 2 6 6 7 7 9 9 10 10 15 11 10 7 7 8 9 11 9
3 2 5 4 4 2 2 1 2 2 3 3 3 3 5 3 3 2 3 2 3 4 3 1 2 4 5 4 3 1 1 3 4 4 4 3 3 6 6 7 8 7 9 9 10 11 10 9 8 8 9 8 8 8
2 3 2 4 4 3 1 0 2 2 1 3 3 2 4 4 3 2 3 3 2 2 3 3 5 5 7 7 5 3 3 3 2 3 5 12 7 6 7 8 9 7 5 7 8 9 9 8 9 9 10 10 10 8
4 3 4 3 4 3 4 3 2 2 1 4 3 3 3 3 4 2 2 1 1 4 5 5 9 9 7 7 6 4 1 4 3 3 4 4 5 6 6 5 7 11 9 5 7 9 10 15 14 11 11 11 10 10
5 4 2 1 3 4 2 3 1 3 3 3 3 5 5 4 3 3 3 0 2 4 5 9 8 8 5 3 2 2 3 1 3 4 4 7 7 4 5 6 6 6 7 9 9 10 10 10 16 10 10 11 10 9
4 4 4 4 3 3 2 4 5 3 2 1 1 5 5 3 2 3 3 4 2 1 3 5 6 6 6 7 4 3 4 1 3 6 2 6 9 7 7 6 7 8 9 12 12 11 10 10 10 10 10 10 12 10
1 4 6 5 2 4 5 3 4 6 3 2 5 4 3 2 1 7 4 3 2 1 2 5 7 7 7 6 7 3 2 2 2 4 2 5 7 9 10 11 9 5 2 7 14 15 13 11 12 13 12 14 19 12
4 5 3 2 2 4 1 2 2 3 3 5 4 3 3 1 6 5 1 1 3 2 4 5 6 6 7 8 6 3 3 2 3 3 5 5 5 5 8 11 11 6 8 9 10 13 17 15 13 12 12 8 7 8
5 4 6 4 2 1 4 2 4 7 4 4 3 1 6 8 6 3 4 3 3 6 7 7 7 6 6 6 2 1 1 4 8 9 9 8 7 6 9 9 11 21 11 10 11 11 12 13 13 12 12 10 7 4
3 3 4 3 1 1 5 7 6 3 1 4 5 4 5 4 3 3 3 3 3 5 6 6 4 2 2 1 1 0 3 5 9 12 13 8 6 5 6 9 10 11 11 12 19 15 16 13 13 11 12 9 7 6
4 3 4 2 6 7 4 4 3 3 1 3 1 2 3 3 3 2 1 3 3 5 5 7 4 2 1 1 0 3 3 3 3 7 11 10 8 7 8 9 11 11 11 14 14 17 25 17 18 11 10 7 6 5
3 3 4 2 4 3 3 2 3 1 3 2 2 3 4 4 4 2 2 2 4 5 5 3 3 3 2 1 1 2 3 5 8 13 13 11 10 10 10 11 11 11 12 14 13 11 12 11 10 10 9 8 8 7
2 4 5 3 3 2 3 2 0 1 3 2 3 1 4 3 4 3 2 2 3 3 4 4 3 4 4 4 3 5 11 7 9 11 13 11 11 12 12 11 11 11 13 13 11 11 13 13 10 9 8 8 7 7
3 3 2 3 3 1 1 3 3 4 2 1 3 2 3 3 5 4 3 1 2 3 2 3 3 4 6 7 7 9 11 9 18 23 23 24 24 19 12 10 11 12 14 12 11 11 12 13 10 9 8 8 7 6
Wind_Direction
332 332 329 329 334 337 332 332 336 333 338 338 339 340 342 346 344 352 282 276 295 31 111 142 143 153 121 174 172 154 348 189 194 220 199 164 211 231 256 225 193 183 170 212 293 262 330 81 66 189 239 301 341 80
332 327 329 333 334 338 340 332 329 334 332 334 335 336 341 340 340 355 309 320 320 184 221 318 283 182 191 185 148 175 219 153 235 234 205 177 202 169 206 272 138 242 192 198 181 220 250 230 249 305 298 282 153 112
329 329 332 331 336 342 344 342 340 334 335 333 330 338 335 337 337 348 308 316 333 349 326 21 233 210 121 206 177 162 192 194 249 23 241 202 228 136 188 240 233 241 189 207 18 288 257 290 259 355 347 45 62 111
326 329 329 333 335 339 340 339 336 333 334 332 333 332 328 330 333 337 298 281 252 269 200 260 63 233 12 103 137 74 119 131 240 247 269 200 224 175 227 227 207 209 128 218 260 275 295 223 116 116 71 77 89 72
325 328 327 330 330 332 337 340 337 335 335 332 325 322 322 326 325 319 274 234 220 273 304 287 152 129 61 145 161 135 159 220 218 219 238 216 163 140 280 18 256 193 183 175 227 232 178 278 122 126 117 112 114 116
324 326 324 327 325 326 333 333 332 327 324 325 326 318 313 314 326 323 305 84 7 303 281 297 105 147 124 157 197 210 206 222 233 256 263 241 176 139 169 217 259 224 216 179 239 103 82 103 97 91 111 113 103 106
323 320 322 321 320 323 326 328 327 324 321 321 318 314 306 301 286 236 265 7 331 328 238 319 309 116 147 172 207 219 186 228 214 214 247 267 194 159 242 228 247 218 198 159 145 123 68 212 162 117 108 99 93 84
318 319 320 319 318 320 320 323 324 323 319 319 318 312 301 284 271 262 248 260 222 261 215 199 265 274 167 180 223 187 219 228 203 259 274 299 10 51 255 239 241 114 122 123 136 317 136 112 101 104 117 120 105 102
314 318 318 318 321 320 318 320 323 321 320 318 324 315 287 133 199 289 317 310 187 237 171 165 164 225 140 275 216 193 237 243 233 241 217 208 175 224 230 225 198 186 184 155 96 90 109 122 127 131 129 121 119 117
314 317 321 321 321 321 317 321 326 323 325 329 338 5 274 31 311 318 247 168 180 205 211 191 129 173 181 211 179 276 27 305 277 282 325 233 253 243 242 220 199 164 144 143 120 104 111 129 147 150 146 131 128 129
311 314 317 320 324 321 320 324 325 329 333 1 351 334 274 320 322 246 150 152 144 223 196 176 167 149 211 165 185 189 191 12 290 275 280 268 263 250 337 216 179 156 163 177 88 106 146 148 147 139 123 112 116 120
311 312 314 317 323 324 328 331 326 340 259 266 279 300 314 339 276 209 182 335 183 216 183 160 177 158 148 270 115 147 119 55 253 331 291 260 258 300 334 7 143 155 152 144 125 136 132 136 140 132 127 123 114 114
307 311 314 320 322 327 332 328 330 325 323 42 20 300 308 270 272 238 151 227 177 183 184 178 131 132 119 67 70 94 102 238 2 285 244 238 259 290 284 38 105 120 118 106 102 104 115 112 118 129 122 116 117 118
305 309 311 319 324 333 330 331 331 334 340 43 6 332 338 322 357 21 348 306 334 306 277 125 89 141 141 70 128 132 114 39 278 250 240 252 243 292 340 130 124 138 119 112 116 120 120 117 106 106 115 126 126 124
306 308 313 316 338 332 335 332 335 21 85 42 26 319 332 354 278 280 244 269 255 267 287 63 49 98 78 91 96 112 100 249 223 233 235 248 255 259 135 118 123 116 112 108 118 121 119 120 116 107 107 112 115 116
311 316 294 329 338 336 339 355 6 47 59 128 255 355 326 337 329 330 340 316 275 301 346 15 133 131 195 138 130 209 150 225 245 222 249 313 308 147 134 122 114 113 119 122 118 122 119 122 122 115 104 103 107 115
309 240 292 333 336 341 337 348 4 46 316 307 33 254 288 260 282 286 312 272 314 335 236 164 181 205 79 107 255 194 205 216 212 259 280 255 235 176 136 122 118 120 117 119 120 116 114 117 118 116 111 98 97 97
247 275 303 326 345 360 333 7 72 66 302 310 291 268 307 231 282 293 291 333 337 307 325 272 118 132 199 182 243 233 216 196 258 222 270 289 157 139 134 124 117 123 122 119 122 123 127 128 119 112 114 115 104 99
259 275 315 345 355 73 51 327 2 83 239 291 289 292 263 265 251 258 272 277 266 266 295 243 236 208 222 218 228 260 210 206 177 154 54 35 142 127 108 95 97 110 119 129 133 129 119 113 121 126 126 123 115 117
342 28 2 356 64 74 22 310 350 221 247 248 284 289 293 264 273 269 277 270 229 232 214 233 250 274 252 268 220 228 209 161 139 98 59 352 123 117 119 124 123 118 104 100 103 115 110 101 99 112 115 127 127 127
42 340 36 59 27 39 152 264 269 236 300 272 304 319 286 334 272 250 275 360 234 226 235 8 328 326 303 282 279 276 283 192 188 174 167 164 178 129 116 112 121 127 132 136 131 131 120 122 127 126 118 111 109 108
233 31 83 36 80 357 95 184 234 259 259 269 298 320 273 292 280 285 298 248 308 5 350 333 322 324 323 321 314 325 284 185 166 108 118 132 144 145 147 146 140 131 131 139 133 131 125 124 119 120 118 118 114 112
92 74 54 46 54 52 251 43 68 322 240 291 359 350 289 289 241 343 255 226 12 23 351 335 325 305 285 295 307 336 291 183 139 132 145 120 115 120 130 141 140 134 126 106 119 125 124 132 128 120 121 118 118 116
45 61 122 151 103 246 20 352 347 22 9 20 33 302 298 248 318 41 247 355 346 339 358 345 336 327 315 300 308 303 309 124 115 103 129 125 119 102 113 121 125 120 121 125 127 126 124 123 128 126 125 119 118 122
84 297 103 272 322 55 48 352 341 53 229 264 281 290 286 6 327 286 235 260 265 307 340 338 334 338 313 308 299 305 321 247 161 132 90 118 117 108 97 98 107 120 136 128 126 128 124 121 121 121 122 124 123 119
207 242 151 206 244 153 189 168 199 203 158 301 238 269 6 358 303 253 239 242 263 241 334 324 319 311 305 301 304 292 314 303 130 104 89 152 150 148 144 138 138 120 122 145 135 132 128 125 124 122 120 128 132 122
226 256 214 238 163 120 96 19 43 118 157 208 252 350 45 296 254 254 289 228 254 266 298 284 277 268 277 292 291 297 315 32 72 105 102 100 109 131 144 144 136 122 119 122 130 137 134 132 127 123 114 100 114 127
209 181 177 212 103 97 148 134 169 202 217 206 117 224 191 205 245 238 226 255 251 300 291 281 259 258 272 274 263 183 67 104 104 100 86 63 59 79 106 110 120 126 117 120 124 124 121 121 122 121 121 120 110 79
207 168 117 133 71 181 213 190 213 224 166 135 166 228 243 235 225 223 266 256 288 294 292 298 294 269 293 342 42 105 165 178 162 145 121 121 109 81 102 111 118 116 115 114 111 110 113 114 114 114 111 109 105 95
209 164 113 136 167 216 237 172 206 227 185 166 242 338 301 283 251 204 286 326 326 293 281 285 285 294 292 266 58 55 6 301 196 155 138 132 124 120 113 118 114 109 110 111 118 116 109 104 105 101 103 110 111 114
120 97 77 131 225 250 235 290 309 90 34 4 333 164 246 286 302 248 199 243 268 276 276 293 342 2 12 40 97 129 74 22 92 100 106 112 112 110 112 107 105 106 108 107 109 116 116 107 109 114 114 118 131 123
110 158 148 185 257 286 28 66 139 88 336 15 276 338 321 356 283 281 279 312 304 323 18 46 39 17 359 353 32 72 107 115 112 107 111 111 106 103 100 99 103 108 104 104 111 115 112 114 116 118 123 123 120 113
80 78 64 83 42 353 270 91 29 330 329 282 268 216 227 214 251 263 294 236 289 313 26 40 37 45 50 55 76 91 90 97 110 111 112 110 110 109 103 100 99 103 105 104 105 109 106 112 116 121 117 112 107 105